Regional Weather Roundup
Issued by NWS Jackson, KY

Home | Current Version | Previous Version | Text Only | Print | Product List | Glossary On
Versions: 1 2 3 4 5 6 7 8 9 10 11 12 13 14 15 16 17 18 19 20 21 22 23 24 25 26 27 28 29 30 31 32 33 34 35 36 37 38 39 40 41 42 43 44 45 46 47 48 49
000
ASUS43 KJKL 040910
RWRJKL

EAST KENTUCKY HOURLY WEATHER ROUNDUP
NATIONAL WEATHER SERVICE JACKSON KY
400 AM EST WED MAR 04 2015

NOTE: "FAIR" INDICATES FEW OR NO CLOUDS BELOW 12,000 FEET WITH
NO SIGNIFICANT WEATHER AND/OR OBSTRUCTIONS TO VISIBILITY.

* THESE REPORTS ARE NOT UNDER NWS QUALITY CONTROL AND MAY NOT
  REPORT WEATHER SUCH AS PRECIPITATION AND FOG.

KYZ079-080-083-085-087-088-110-112-115-119-120-041000
...EASTERN KENTUCKY...

CITY           SKY/WX    TMP DP  RH WIND       PRES   REMARKS
JACKSON        LGT RAIN  50  49  96 CALM      29.86S FOG
LONDON         CLOUDY    54  49  83 CALM      29.86S
SOMERSET*      CLOUDY    50  50 100 CALM      29.87F
MONTICELLO*    CLOUDY    55  55 100 CALM      29.87F
MIDDLESBORO*   RAIN      56  55  99 S5        29.90S
HAZARD APT*    RAIN      54  54 100 NW7       29.88R
BLACK MTN*       N/A     50  50 100 S16         N/A
PIKEVILLE APT* LGT RAIN  52  52 100 N3        29.86R
BIG SANDY*     RAIN      52  51  97 CALM      29.87R
MOREHEAD APT*  LGT RAIN  45  43  93 NW6       29.89S
$$

KYZ035-036-041-042-044-050-067-078-099-041000
...CENTRAL KENTUCKY...

CITY           SKY/WX    TMP DP  RH WIND       PRES   REMARKS
MT STERLING*   LGT RAIN  43  43 100 NW3       29.90R
FLEMING/MASON* LGT RAIN  41  41 100 NW6       29.90R
DANVILLE*      RAIN      45  45 100 N6        29.90R
RICHMOND*      CLOUDY    46  45  93 CALM      29.86S
LEXINGTON      RAIN      42  41  96 NW7       29.90R FOG
FRANKFORT      RAIN      41  40  96 CALM      29.89R FOG
$$

KYZ091>093-OHZ055-061-077-WVZ005-015-034-035-042-041000
...SOUTHERN OHIO/WEST VIRGINIA...

CITY           SKY/WX    TMP DP  RH WIND       PRES   REMARKS
COVINGTON      RAIN      37  35  92 NW7       29.89F FOG     WCI  32
COLUMBUS       RAIN      34  34 100 W7        29.87S FOG     WCI  28
DAYTON         LGT RAIN  34  33  96 W7        29.88S FOG     WCI  28
WILMINGTON     RAIN      35  33  92 W7        29.87R FOG     WCI  29
HUNTINGTON     LGT RAIN  47  46  97 NW3       29.85F
CHARLESTON     RAIN      52  50  93 NW6       29.87R FOG
PINEVILLE*     SNOW      43  43 100 MISG      29.90S VSB 1/4
BECKLEY        RAIN      47  47 100 N8        29.87R FOG
BLUEFIELD      RAIN      57  52  83 W22G35    29.89R
$$

VAZ002-007-008-TNZ017-027-036-066-071-041000
...SOUTHWEST VIRGINIA/EAST TENNESSEE...

CITY           SKY/WX    TMP DP  RH WIND       PRES   REMARKS
WISE*          LGT RAIN  52  52 100 SW20G29   29.89F VSB 1
JONESVILLE*    RAIN      37  37 100 CALM      29.93F VSB 1/2
ABINGDON*      DRIZZLE   45  45 100 SW3       29.92S
BRISTOL        FOG       45  45 100 CALM      29.92F VSB 1/2
KNOXVILLE      LGT RAIN  58  57  97 SW14      29.91F FOG
OAK RIDGE      LGT RAIN  54  53  97 W6        29.94F FOG
CROSSVILLE     LGT RAIN  60  58  92 VRB7      29.91F FOG
NASHVILLE      MOCLDY    64  61  90 S9        29.85S
$$

...KEY TO REMARKS...
VSB - VISIBILITY IN MILES
WCI - WIND CHILL INDEX
HX  - HEAT INDEX

$$



USA.gov is the U.S. government's official web portal to all federal, state and local government web resources and services.